Regional Weather Roundup
Issued by NWS

Home | Current Version | Previous Version | Text Only | Print | Product List | Glossary On
Versions: 1 2 3 4 5 6 7 8 9 10 11 12 13 14 15 16 17 18 19 20 21 22 23 24 25 26 27
000
ASUS42 KKEY 230510
RWRKEY

FLORIDA REGIONAL WEATHER ROUNDUP FOR THE FLORIDA KEYS
NATIONAL WEATHER SERVICE KEY WEST FLORIDA
1200 AM EST MON JAN 23 2017

...SOUTH FLORIDA AND THE KEYS...

CITY           SKY/WX    TMP DP  RH WIND       PRES   REMARKS
FORT MYERS     CLOUDY    74  70  87 W24G32    29.56R
SW REGIONAL AP CLOUDY    72  68  87 SW17      29.56F
NAPLES         TSTM      74  73  97 SW29G43   29.58S FOG
MIAMI          PTCLDY    80  70  71 S23G32    29.63F
WEST KENDALL   MOCLDY    78  70  76 S16G29    29.63F
HOMESTEAD      PTCLDY    77  75  93 S18G29    29.64F
MARATHON       CLEAR     81  73  76 SW15G29   29.67F
BOCA CHICA NAS CLEAR     78  72  81 SW28G36   29.67F
KEY WEST INTL  NOT AVBL

...INTERNATIONAL WEATHER...

CITY           SKY/WX    TMP DP  RH WIND       PRES   REMARKS
NASSAU BAHAMAS NOT AVBL
CANCUN MEXICO  PTCLDY    73  72  94 W6        29.84S
COZUMEL MEXICO PTCLDY    79  72  78 N9        29.83S

ADJACENT COASTAL WATERS...

STATION/POSITION TIME  SKY/WX   TEMP    WIND        PRES    WAVE
                                AIR SEA DIR/SP/G            HT/PER
                 (UTC)          (F)     (DEG/KT/KT) (MB)    (FT/S)
PULASKI SHOAL LI 0500            79     220/ 25/ 28 1003.6F
SAND KEY         0450            78     210/ 28/ 32 1005.2F
LONG KEY         0400            78 76  210/ 23/ 25 1006.0F
MOLASSES REEF    NOT AVBL
FOWEY ROCKS      0400            77 75  200/ 30/ 33 1005.5F

$$




USA.gov is the U.S. government's official web portal to all federal, state and local government web resources and services.